Location: Bednik
(45.3500°N, 16.3833°E)
Time: 08:18:26
(UTC+00:00)

Nadezhda 4 Rocket - Pass Details

Date: 08 August 2020
Orbit: 949 x 993 km, 82.9° (Epoch: 26 September)

Event Time Altitude Azimuth Distance (km) Brightness Sun altitude
Rises 23:28:50 0° 351° (N) 3,710 8.1 -28.5°
Reaches altitude 10° 23:31:22 10° 352° (N) 2,753 7.2 -28.5°
Maximum altitude 23:37:42 89° 77° (ENE) 985 3.9 -28.3°
Enters shadow 23:38:09 79° 165° (SSE) 1,001 3.8 -28.3°
